星链-32614 (STARLINK-32614)

导读

STARLINK-32614是美国SpaceX公司于2024年12月23日,在肯尼迪航天中心通过猎鹰9号火箭发射的星链卫星,隶属于Starlink Group 12-2任务批次。作为第二代星链星座的组成部分,该卫星运行于近地轨道,具备直接到蜂窝基站的通信能力,可服务全球偏远地区高速互联网接入,是星链扩张全球覆盖网络的其中一颗卫星。

基本信息
目录编号:
62428
目录名称:
STARLINK-32614
国际标识:
2024-249V
轨道中心:
EARTH
卫星名称:
星链-32614
卫星全名:
星链-32614 (STARLINK-32614)
卫星状态:
在轨 (已飞行620 天)
发射日期:
2024-12-23 UTC
国别 :
美国 (US)
星等 :
--
轨道信息
数据来源 国际轨道数据
星历时间: 2026-09-04T03:30:43+0800
10小时前
查看轨道信息
半长轴: 6861.156km
偏心率: 0.0001899
轨道倾角: 43.005°
近地点辐角 270.850°
升交点赤经 36.053°
平近点角 89.214°
近地点: 481.716km
远地点: 484.322km
周期: 94.266分钟
每日圈数: 15.275903
详细信息
固有亮度:
5
最大亮度:
2.5
卫星平台:
Starlink V1.0
覆盖范围:
全球
运营商:
太空探索技术公司
运营商所在国:
美国
制造商(研发单位):
太空探索技术公司
制造商所在国:
美国
使用方式:
暂无
卫星简介
Starlink 计划是 SpaceX 推出的全球卫星互联网项目,通过发射低轨道卫星,为全球尤其是偏远地区提供高速、低延迟的互联网服务。自 2019 年起,Starlink 已部署数千颗卫星,旨在缩小全球数字鸿沟,推动互联网普及。该项目还为军事、航空等行业提供通信支持,带来广泛经济效益。
2D轨道图
3D轨道图
轨道高度分析图
轨道倾角分析图
轨道综合分析图
查看轨道综合分析图
交会数据列表
事件ID 空间交会对象 最接近时刻(TCA) 交会距离 交会风险概率(CRP) 交会风险指数(CRI) 操作
CDM_260904-025105-744906-242821
2026-09-04T
02:51:57+0000
0.436 km
远距离
1.515866E-4 高风险 0.79
CDM_260904-112505-655306-242821
2026-09-04T
11:25:06+0000
0.578 km
远距离
9.73102E-5 中风险 0.75
CDM_260903-123905-655306-242821
2026-09-03T
12:39:52+0000
0.604 km
远距离
8.627872E-5 中风险 0.74
CDM_260904-145306-242806-659821
2026-09-04T
14:53:54+0000
0.864 km
远距离
2.789665E-5 中风险 0.64
CDM_260903-141405-655306-242821
2026-09-03T
14:14:02+0000
0.872 km
远距离
2.777047E-5 中风险 0.64
CDM_260904-192805-322006-242821
2026-09-04T
19:28:10+0000
1.097 km
极远距离
1.608397E-5 中风险 0.59
CDM_260904-071005-683906-242821
2026-09-04T
07:10:38+0000
1.099 km
极远距离
1.47439E-5 中风险 0.58
CDM_260904-131906-242806-659821
2026-09-04T
13:19:44+0000
1.052 km
极远距离
1.423871E-5 中风险 0.58
CDM_260904-053605-683906-242821
2026-09-04T
05:36:29+0000
1.114 km
极远距离
1.406915E-5 中风险 0.58
CDM_260904-161205-744906-242821
2026-09-04T
16:12:15+0000
0.980 km
远距离
1.38245E-5 中风险 0.58